Wind_Speed
21 20 19 19 19 18 18 17 17 16 16 17 17 16 16 16 16 16 15 15 15 15 14 14 14 15 15 16 18 19 20 20 20 20 20 20 19 19 19 18 18 18 18 17 17 17 17 17 17 16 16 16 17 16 15 15 14 13 13 12 12 11 10 10 9 9 9 9 9
22 21 20 19 19 18 17 17 17 17 17 17 17 16 16 16 16 16 16 15 15 14 14 14 14 14 15 17 18 19 19 20 20 20 20 20 20 19 19 19 18 18 18 18 17 16 16 17 16 16 15 15 15 15 15 15 14 14 14 14 14 13 12 11 9 9 9 9 9
22 21 20 20 20 19 18 18 18 18 18 17 17 16 16 16 16 16 16 16 15 14 14 14 14 15 16 16 17 18 19 19 20 20 20 20 19 19 19 18 18 18 18 18 17 17 16 16 16 15 14 14 15 15 14 14 14 13 13 13 14 15 15 14 12 10 10 10 10
23 22 21 21 21 20 19 18 19 19 19 18 17 17 16 16 16 16 16 16 15 15 14 14 14 15 15 16 17 18 18 19 19 19 19 19 19 19 19 18 18 18 18 18 18 17 16 17 16 15 15 15 15 14 14 13 12 11 11 12 14 15 16 16 15 13 12 12 11
24 23 22 22 22 21 20 19 19 19 19 18 17 17 17 16 16 16 16 16 16 16 15 15 14 14 15 16 17 18 18 18 19 19 19 19 19 19 19 19 18 18 18 18 18 17 17 17 16 16 15 15 15 14 13 12 12 11 10 11 13 15 16 16 16 15 14 13 11
24 24 23 22 22 21 20 19 19 19 19 18 18 18 18 17 17 17 17 17 17 16 16 15 14 14 15 16 17 17 18 18 18 18 18 18 18 18 19 19 19 19 18 18 18 17 17 17 16 16 15 15 13 12 12 13 14 13 11 11 13 14 14 14 14 14 13 12 11
24 24 23 22 22 22 21 20 19 19 19 19 19 19 19 18 18 18 18 18 17 16 16 15 15 15 15 16 17 17 18 18 18 18 18 18 18 18 18 19 19 19 18 18 17 17 17 17 16 15 14 13 12 12 13 15 15 14 13 12 13 13 13 13 13 13 12 11 10
24 24 24 23 22 22 21 20 20 20 19 19 20 20 20 20 19 19 19 18 17 16 16 16 16 16 16 16 17 17 18 18 18 18 18 17 18 18 18 19 19 19 18 18 17 17 17 17 17 16 14 12 11 12 13 15 15 14 13 12 12 13 13 12 12 11 11 10 9
23 24 24 23 22 22 22 21 21 20 20 20 20 21 21 20 20 19 19 18 17 17 16 16 17 17 16 16 17 17 17 17 18 18 18 17 18 18 18 19 19 18 18 17 17 17 17 18 18 17 14 12 11 11 12 13 13 12 11 11 11 12 12 12 11 10 9 9 8
23 24 24 23 23 22 22 22 21 21 20 20 20 20 21 20 20 20 19 18 17 17 17 17 17 17 17 17 17 17 17 17 17 18 18 17 18 18 18 19 19 18 18 17 17 17 18 18 18 16 14 11 11 11 11 12 12 12 12 12 12 12 11 11 10 9 8 8 8
24 23 23 23 23 23 22 22 21 21 20 20 20 20 20 20 20 20 19 18 17 17 17 17 18 18 17 17 17 17 17 16 17 17 18 18 18 18 19 19 19 18 18 17 17 17 18 17 16 15 13 11 11 11 11 12 13 13 14 13 13 12 11 11 10 9 9 9 10
24 23 23 23 23 23 22 22 21 21 20 20 19 20 20 20 21 20 19 18 18 18 18 18 18 18 18 17 17 17 16 16 16 17 17 18 18 18 18 18 18 18 17 17 17 17 18 16 15 14 13 11 11 12 13 14 14 15 15 14 13 12 11 11 10 10 10 10 11
24 23 23 23 23 23 22 22 21 20 20 20 19 20 20 20 21 20 20 19 18 18 18 18 19 18 18 17 17 17 16 16 17 17 17 18 18 18 18 18 18 18 17 17 17 18 17 17 16 15 14 12 12 13 14 15 15 15 15 14 13 12 12 12 11 11 11 11 11
25 24 23 23 23 23 22 22 21 20 20 20 20 20 20 20 21 21 20 20 19 18 18 18 19 19 18 17 17 17 17 16 17 17 17 17 18 18 18 18 17 17 17 17 17 18 17 17 18 17 15 14 14 14 14 14 15 15 15 14 13 13 13 13 12 12 12 12 12
25 24 23 23 23 23 22 22 21 20 20 20 20 20 19 20 20 21 21 20 19 18 18 19 20 20 19 18 17 17 17 17 17 17 17 17 18 18 18 17 17 17 17 16 17 17 17 18 18 17 16 15 15 14 14 14 14 15 15 15 14 14 14 14 13 13 13 13 13
25 25 24 23 23 23 23 22 21 20 20 20 20 20 20 20 20 21 21 20 19 19 19 20 20 20 19 18 17 17 17 17 17 17 17 17 17 18 17 17 17 17 17 17 16 16 17 17 16 16 16 16 15 15 14 14 15 15 15 15 14 14 14 14 14 14 14 14 14
26 25 24 24 24 24 23 23 21 20 20 21 21 21 20 20 20 21 21 21 20 19 20 21 20 19 19 18 17 17 17 17 17 17 17 17 17 17 17 17 17 17 17 17 17 16 16 16 16 16 16 16 16 15 15 15 15 15 15 15 15 15 15 15 15 15 15 15 15
26 26 25 25 25 25 24 24 22 21 21 21 21 21 21 20 21 21 21 21 21 21 21 22 20 19 18 18 18 17 17 17 17 17 17 17 17 17 17 16 16 17 18 18 18 17 17 17 17 17 17 16 16 16 16 16 16 15 15 15 15 15 15 15 15 15 15 15 15
26 26 26 26 25 25 25 24 23 22 21 21 21 21 21 21 21 21 21 22 23 23 23 22 20 18 18 18 18 18 17 17 17 17 17 17 17 17 16 16 17 18 19 19 19 19 19 18 18 17 17 17 16 16 16 16 16 16 16 15 15 16 16 16 16 16 15 15 15
26 26 26 26 26 25 25 25 24 22 21 21 21 21 21 21 22 22 22 23 25 25 25 23 21 19 18 18 19 18 17 16 16 16 16 16 16 16 16 17 18 19 20 20 20 20 19 19 18 18 17 17 17 18 17 17 17 17 17 16 16 17 17 17 16 16 16 15 15
27 27 27 26 26 25 25 24 24 23 21 21 21 21 21 22 22 23 24 25 26 25 25 24 21 19 18 19 19 18 17 16 16 16 16 16 16 16 17 19 20 21 21 21 20 20 20 19 18 18 18 18 18 18 18 18 18 18 18 18 18 18 18 17 17 17 16 15 15
27 27 26 26 25 25 24 24 24 23 21 21 21 21 21 22 22 24 25 26 26 25 24 24 22 20 19 19 19 18 17 15 15 15 15 16 16 18 19 20 21 21 21 21 21 20 20 19 19 19 19 19 19 19 19 19 20 20 20 20 20 19 19 18 17 17 16 16 16
27 26 26 25 25 24 24 24 23 22 21 21 21 21 22 22 23 24 25 26 25 24 23 23 21 20 19 19 19 18 17 15 15 16 16 17 18 19 20 21 21 22 22 22 21 21 21 21 21 20 20 20 20 20 20 20 21 22 22 22 21 20 19 19 18 18 18 17 17
26 26 25 24 24 24 23 23 23 22 22 21 21 22 22 23 24 24 25 25 24 23 22 22 20 19 19 18 18 17 17 17 17 17 18 18 20 21 21 21 22 22 22 22 22 22 22 22 22 22 21 21 21 21 21 22 23 24 24 24 23 22 21 20 19 19 19 19 18
26 25 25 24 24 23 23 23 23 23 22 21 21 22 23 24 24 24 24 24 23 22 21 20 19 18 18 17 17 17 18 19 19 20 20 21 21 22 23 22 22 22 22 22 22 22 22 23 23 23 23 23 22 23 23 24 24 25 25 25 25 24 23 21 20 20 20 19 18
25 25 24 24 23 23 23 23 23 23 22 22 22 22 23 24 24 24 24 24 23 22 21 19 18 18 18 18 18 18 19 20 21 22 22 23 23 23 23 23 23 23 23 23 23 23 22 22 22 23 23 24 24 24 25 26 26 26 26 26 25 25 24 23 21 19 18 17 17
24 24 24 24 24 24 23 23 23 23 22 22 23 23 24 24 24 24 24 23 22 21 20 19 18 18 19 19 19 20 20 21 21 23 24 24 25 24 24 23 23 23 24 24 24 23 23 22 22 23 24 25 26 26 27 27 27 27 26 26 25 25 25 24 22 20 19 19 18
24 24 24 24 24 24 24 24 23 23 23 23 24 24 24 24 23 23 23 22 22 21 19 18 19 19 20 20 20 21 22 23 23 23 24 24 25 25 24 24 24 24 25 25 24 24 24 23 23 24 25 26 27 28 28 28 28 26 25 25 24 24 24 23 22 21 21 20 19
24 24 24 24 24 24 24 24 24 23 23 24 24 24 24 24 23 23 23 22 22 21 20 19 20 20 20 21 22 22 23 24 24 24 25 25 25 25 25 25 25 25 25 26 26 25 24 24 24 25 26 27 28 29 28 28 27 25 24 23 23 23 23 22 22 21 21 21 20
24 24 24 25 25 24 25 25 24 23 23 23 24 24 24 23 23 23 23 22 22 22 21 21 21 21 22 22 23 24 25 25 25 26 26 26 25 25 25 26 26 26 27 27 26 26 25 25 26 27 28 29 30 29 28 27 26 24 23 22 22 22 22 22 23 23 22 22 21
24 24 24 25 25 25 25 25 24 23 23 23 24 24 24 23 23 23 23 23 23 22 22 22 23 23 24 25 25 26 26 27 27 27 27 27 27 26 26 27 27 28 28 28 27 27 26 27 27 28 29 30 30 29 28 26 25 24 23 23 23 23 23 23 23 23 23 22 22
24 24 24 25 24 25 25 24 24 23 23 23 24 24 24 23 23 23 23 23 23 23 23 24 25 25 26 26 27 27 28 27 27 28 28 28 28 27 28 28 29 29 29 28 28 28 28 28 29 30 31 31 30 29 27 26 25 24 24 23 23 23 23 23 23 23 23 22 22
24 24 24 24 24 24 24 24 24 23 24 24 24 24 23 23 23 23 23 23 23 24 25 26 27 27 27 28 28 28 28 28 28 28 29 29 29 29 30 30 30 30 30 29 29 28 29 30 31 31 32 31 30 28 27 26 25 24 24 24 24 24 24 24 23 23 22 22 21
24 24 24 24 24 24 24 24 23 24 24 24 24 23 23 23 24 23 23 24 24 25 26 27 28 28 29 29 29 29 28 28 29 29 30 30 31 31 32 31 30 30 30 30 29 30 30 31 32 32 32 31 29 28 27 26 25 25 24 24 24 24 24 24 24 23 22 21 20
25 25 24 24 24 23 23 23 23 24 24 23 23 23 23 24 24 24 25 25 25 26 26 27 28 28 29 29 30 30 29 29 29 30 31 32 33 33 33 32 31 31 31 30 30 31 31 32 33 33 32 30 29 28 27 27 26 26 26 25 24 23 23 23 23 22 21 20 19
26 25 24 24 23 23 23 23 23 24 24 24 24 24 24 24 24 25 26 27 27 26 26 27 27 28 28 29 29 29 30 31 31 31 32 33 34 34 33 32 32 31 31 31 31 32 33 33 33 33 31 30 29 29 28 28 27 27 26 25 24 23 22 22 22 21 20 19 18
27 26 25 24 23 23 23 24 24 24 24 24 25 25 25 25 24 25 27 29 28 28 27 27 28 28 29 29 29 30 31 33 33 33 33 34 34 35 34 33 32 32 31 31 32 33 33 34 33 32 31 31 30 30 29 29 28 27 26 25 23 22 22 21 21 20 19 18 18
28 27 26 25 24 24 24 24 24 24 24 25 25 25 25 25 26 27 28 29 29 29 29 29 29 29 29 30 30 30 32 33 34 34 34 34 35 35 35 34 33 32 31 32 33 33 34 33 33 32 31 32 32 31 30 29 28 27 25 24 23 22 21 21 20 19 18 18 17
30 29 28 27 26 25 24 24 24 24 24 25 25 26 26 26 27 28 29 30 30 30 30 30 29 29 30 31 31 31 31 33 34 35 35 35 35 36 36 35 33 32 32 32 33 34 34 33 32 32 32 33 33 32 31 30 28 27 25 24 22 21 20 20 19 19 19 18 17
31 31 31 29 28 26 25 24 24 24 25 26 26 26 27 27 28 28 29 29 29 30 30 30 30 30 31 31 32 31 31 31 32 33 34 35 36 37 37 36 34 33 32 33 33 34 33 33 32 32 33 33 33 33 31 30 29 27 25 23 21 20 19 19 19 19 19 18 17
30 31 32 31 30 28 26 25 25 25 26 27 27 28 28 29 29 28 28 28 28 29 29 30 30 31 32 32 32 32 31 30 30 32 34 35 36 36 36 36 35 34 33 33 33 33 33 33 33 33 34 34 33 33 32 30 28 26 24 22 21 20 20 19 19 18 18 17 16
Wind_Direction
198 197 196 195 195 194 192 192 191 189 187 186 185 184 182 181 182 184 186 187 190 191 193 194 195 196 196 195 195 196 197 198 199 199 200 200 200 199 199 199 200 201 201 202 202 204 206 208 207 209 213 217 219 220 219 219 219 218 217 218 219 219 218 217 216 216 214 216 223
199 197 196 195 195 194 192 191 191 190 189 188 187 185 184 182 183 184 186 188 190 191 192 194 195 196 195 195 195 195 195 196 197 198 199 199 200 199 199 199 200 201 202 202 201 201 203 204 203 205 208 212 217 218 219 220 220 220 221 221 222 222 220 217 218 217 217 219 228
200 198 197 196 195 194 192 192 191 191 190 188 188 186 185 184 185 186 187 189 190 190 191 193 194 196 195 193 194 194 194 195 195 196 197 198 198 198 198 198 199 200 202 202 201 200 201 202 203 203 206 210 214 216 216 217 217 218 219 220 223 225 225 223 220 219 220 225 235
201 199 198 197 196 195 193 192 192 191 190 189 188 187 186 185 187 187 188 188 189 191 192 193 193 194 194 193 193 193 194 194 194 194 195 196 197 196 196 197 198 199 201 201 201 200 200 202 203 204 206 210 214 215 214 213 211 212 214 218 224 228 230 231 230 228 229 233 241
202 201 200 199 198 196 195 193 192 191 189 188 187 187 187 187 187 188 188 189 191 192 193 193 192 192 192 192 192 192 192 193 192 193 194 195 195 195 195 195 196 198 199 201 200 199 199 201 203 206 208 212 215 216 214 211 207 205 209 217 225 231 234 237 239 241 242 242 244
203 202 201 200 199 197 196 195 193 191 189 188 188 188 188 187 187 187 187 189 192 193 193 193 192 192 191 191 191 191 191 192 192 192 193 193 193 193 193 194 195 197 198 199 199 198 199 200 203 207 210 212 213 213 211 210 208 207 209 217 228 234 238 241 245 249 249 247 243
204 203 202 201 200 198 197 196 194 192 190 190 190 190 189 188 187 187 188 189 190 190 191 192 193 192 191 190 190 191 191 191 192 192 192 192 192 192 192 193 194 196 197 197 197 197 197 199 202 206 208 209 209 209 211 215 215 214 213 218 228 236 240 243 248 251 249 244 238
205 204 203 202 200 199 198 196 194 193 192 192 192 192 191 189 187 187 187 187 188 188 190 193 194 194 192 191 191 191 191 191 191 191 192 192 191 191 192 192 194 195 196 197 196 195 196 199 204 206 205 203 204 208 214 219 220 217 214 216 225 233 239 242 245 247 245 240 233
206 205 204 203 201 200 199 197 196 195 194 194 195 194 193 190 188 187 186 187 187 188 190 194 196 196 195 193 192 191 191 191 191 191 191 191 190 190 190 192 194 195 196 196 195 195 196 200 206 207 206 203 203 207 214 221 218 211 205 208 219 227 233 236 238 238 237 231 224
205 204 203 202 202 200 199 198 197 197 196 196 196 195 193 191 189 188 187 187 186 188 191 195 197 197 196 195 193 192 191 190 190 190 190 190 189 189 190 191 194 195 195 195 194 194 197 201 205 206 205 204 203 205 210 215 210 203 201 207 214 219 222 225 227 226 222 216 211
205 204 203 202 201 200 199 198 198 198 198 198 196 195 193 192 190 189 188 186 186 189 193 197 198 197 196 195 194 193 191 190 190 189 189 189 189 189 189 191 193 194 194 193 192 193 196 200 203 203 201 201 201 201 203 205 204 202 203 209 212 213 213 213 214 212 208 205 204
205 204 202 201 200 199 198 198 198 199 199 198 196 194 193 192 191 189 187 186 186 191 195 199 199 198 196 195 194 193 191 190 189 189 189 189 189 189 190 191 192 192 191 190 190 192 196 198 199 199 197 196 197 201 203 205 205 205 206 209 209 207 205 205 206 204 202 200 200
205 204 202 201 200 198 197 197 198 199 199 198 196 195 193 192 190 188 187 186 187 191 196 199 200 198 196 195 193 192 191 190 189 188 188 189 189 189 189 190 190 190 189 188 190 193 196 197 198 197 193 191 197 204 208 208 209 209 208 207 205 202 200 201 201 200 199 197 196
205 203 202 200 199 197 197 197 198 199 198 198 196 195 193 192 189 187 187 187 187 190 195 199 200 199 197 195 193 191 190 189 189 188 188 189 189 189 189 189 189 188 186 187 191 194 196 198 199 196 193 193 200 206 210 211 210 209 208 205 201 199 198 198 198 197 195 192 190
204 203 202 200 198 197 197 196 197 198 198 197 196 194 192 191 188 187 187 187 187 190 195 199 201 200 198 196 193 191 190 189 188 188 188 189 189 189 189 189 188 186 185 185 189 193 197 200 199 195 193 196 202 206 208 208 207 206 204 202 200 198 197 196 195 194 191 189 184
204 203 201 200 198 197 197 197 198 198 198 197 195 193 191 189 187 187 187 187 186 190 196 200 201 200 198 196 194 191 190 189 189 189 189 189 189 189 190 189 187 184 183 184 186 191 196 200 196 192 191 197 201 203 203 201 199 197 197 197 198 196 194 192 190 188 187 186 180
204 203 202 200 199 198 197 197 198 198 197 196 193 191 189 188 186 186 186 185 185 189 196 200 199 198 196 195 193 191 190 189 189 190 190 190 189 189 189 188 185 182 182 183 185 188 191 192 189 188 191 196 198 198 196 194 191 189 189 190 191 189 187 186 184 182 180 179 175
204 204 203 202 201 199 198 198 198 197 196 194 192 190 188 187 186 185 184 184 185 190 195 198 197 195 193 192 192 190 190 190 190 190 190 190 190 189 188 185 181 180 182 184 185 187 186 185 184 186 190 193 192 191 189 187 184 182 182 182 182 181 179 178 177 176 173 171 168
204 204 203 202 202 201 200 199 198 197 196 194 191 190 189 187 185 183 182 183 188 193 195 195 193 192 191 191 190 190 190 190 190 190 190 190 189 188 185 180 178 180 183 185 187 187 186 185 185 187 188 188 185 183 181 178 176 175 174 174 173 172 171 171 170 169 166 164 160
205 204 203 203 202 201 200 199 199 198 196 195 192 190 188 186 183 180 181 184 190 195 196 194 191 190 190 190 189 189 189 189 189 189 188 188 187 184 180 177 177 181 185 187 187 187 186 185 186 186 186 183 178 175 172 170 169 168 167 166 165 164 164 164 162 160 159 157 154
205 205 204 203 202 202 201 200 200 199 197 196 192 189 187 184 181 181 183 187 191 194 195 193 191 189 188 188 188 188 187 187 187 186 185 184 182 178 176 177 179 182 185 187 186 186 185 184 184 183 181 177 173 170 167 165 163 163 161 159 158 157 157 156 155 154 152 150 148
205 205 204 203 202 201 201 200 200 200 198 196 192 188 185 182 181 183 186 189 190 192 192 192 191 188 187 187 186 185 184 183 183 182 180 178 176 175 176 178 180 181 182 183 183 183 182 181 179 177 174 170 168 167 165 163 161 159 156 153 151 150 150 149 148 147 144 142 138
205 205 204 202 201 200 199 200 200 199 198 196 191 186 182 181 182 184 187 188 188 189 190 191 190 189 187 186 184 182 180 177 177 176 174 172 172 174 176 178 179 179 179 180 180 179 177 173 171 170 168 165 164 163 163 161 159 155 152 148 145 143 142 141 139 137 135 132 130
204 204 203 202 201 200 199 199 199 198 196 193 188 184 181 181 182 183 185 186 186 187 187 188 188 187 186 184 181 179 176 174 172 171 170 170 171 173 175 177 178 179 179 180 182 180 177 171 166 164 164 163 161 161 160 159 156 152 148 145 141 138 135 133 132 130 128 126 123
204 203 203 202 201 199 199 198 197 196 195 191 185 181 180 180 180 181 183 184 184 184 184 184 185 184 182 180 178 176 175 174 172 170 169 170 171 173 174 174 176 177 179 180 183 183 181 176 170 165 163 161 160 158 157 155 153 150 146 143 139 135 130 127 125 123 120 119 118
203 203 203 202 200 198 197 196 195 194 192 187 182 179 178 179 179 180 181 182 182 182 182 181 180 179 178 177 176 175 174 173 171 170 170 170 170 171 172 172 173 175 176 179 181 183 181 178 174 170 165 161 159 156 153 150 149 147 145 142 139 134 130 126 124 121 119 117 116
202 202 202 201 200 199 197 195 193 190 187 183 179 178 177 178 178 179 180 180 180 179 178 177 176 176 176 176 175 173 172 171 170 171 171 171 169 168 168 169 171 173 175 177 178 179 178 176 174 171 167 162 159 155 151 147 145 144 142 140 138 135 132 130 128 126 124 122 121
200 201 201 201 200 199 197 194 191 187 183 180 178 177 176 176 177 177 178 178 177 175 175 175 174 175 175 174 173 171 170 169 169 169 170 169 167 166 166 168 170 172 174 174 174 174 174 173 172 170 167 163 158 154 150 146 143 141 140 138 137 136 134 132 131 129 127 126 126
199 199 199 199 199 198 196 193 189 185 180 178 176 175 175 175 175 176 176 175 174 173 173 174 174 174 173 171 170 170 169 169 168 168 167 165 164 164 166 167 168 170 170 170 170 170 170 170 170 169 166 162 156 151 148 145 142 140 139 138 138 138 136 134 133 131 131 130 130
198 198 198 198 197 195 194 191 187 183 178 175 174 173 173 173 174 174 174 173 173 173 174 174 173 172 171 170 169 168 167 167 167 166 164 163 162 163 165 166 165 166 166 167 167 167 168 168 168 166 163 160 154 149 146 144 142 140 139 139 139 139 137 136 134 134 134 134 133
197 196 196 196 195 193 191 189 185 180 175 173 172 172 172 172 172 173 173 173 173 173 174 174 172 171 170 169 168 166 166 165 165 164 164 163 161 161 162 162 161 162 163 165 165 165 165 165 164 162 160 157 152 148 145 143 142 140 140 139 139 139 138 137 136 136 137 137 137
196 195 195 194 192 191 189 186 182 177 174 172 171 171 171 171 172 172 172 172 172 172 172 172 170 168 167 167 166 166 165 164 163 163 163 162 160 159 158 157 157 159 161 163 163 162 162 162 161 159 157 154 150 146 143 141 140 139 138 138 139 139 139 138 138 138 139 140 141
194 193 192 191 190 188 186 182 178 174 172 171 170 170 170 170 171 172 172 171 172 172 171 171 169 167 165 165 164 163 163 162 162 162 162 161 158 155 153 152 153 156 159 161 161 160 159 159 158 157 155 152 148 144 141 139 137 136 136 137 138 140 140 140 141 141 142 143 143
192 191 190 189 187 185 181 178 174 171 170 169 169 169 169 168 170 170 171 171 172 172 172 171 170 168 167 166 164 162 161 160 160 159 159 158 156 153 150 149 150 154 157 159 159 158 157 157 156 155 153 150 145 142 140 138 136 135 136 137 138 140 142 143 144 145 145 145 145
188 187 186 185 183 180 176 172 170 168 168 168 168 168 168 168 169 170 170 170 170 169 169 168 168 167 166 165 164 162 160 157 157 156 156 155 153 150 148 146 149 153 156 157 157 157 157 157 156 154 151 147 142 139 138 136 134 134 135 136 137 139 142 144 145 145 146 145 144
184 182 181 180 178 175 172 169 168 167 167 167 167 168 168 168 169 169 168 168 166 164 163 163 163 162 161 160 161 160 158 157 155 154 153 153 151 148 146 145 147 151 155 156 157 157 157 156 155 153 150 144 139 137 135 134 132 132 133 133 134 136 139 140 141 142 142 141 140
180 178 175 173 172 171 169 168 167 167 168 168 169 169 168 168 167 167 167 166 163 160 160 160 160 159 159 158 158 158 158 157 155 152 151 151 150 147 145 144 146 150 154 156 157 157 157 156 155 153 149 143 138 135 134 131 130 130 130 129 130 132 134 134 135 135 135 135 135
175 174 171 170 169 169 169 168 168 167 167 168 168 168 167 166 165 165 165 165 162 160 159 159 158 158 159 158 157 156 156 156 154 152 150 150 149 147 145 143 145 149 154 157 158 158 157 156 155 153 149 143 138 136 133 130 129 127 127 126 126 127 128 128 128 128 129 130 131
172 171 170 169 168 168 169 169 169 168 167 167 167 167 166 164 163 163 164 165 163 161 159 157 157 157 157 156 154 152 152 153 153 152 150 149 149 148 146 144 145 149 154 157 158 158 157 155 154 152 149 144 140 137 134 131 128 127 125 124 123 122 122 122 121 121 122 125 127
171 169 168 168 169 169 169 169 169 168 167 167 166 165 164 163 162 162 162 162 161 160 158 156 155 155 155 153 150 149 148 148 149 149 149 148 149 149 148 146 146 149 153 157 158 157 155 154 153 151 149 145 141 138 135 132 129 127 125 124 122 121 119 118 117 117 116 117 119
171 168 167 168 168 169 169 168 168 167 167 166 165 164 162 161 160 158 158 157 157 156 155 153 152 152 151 150 148 146 144 144 145 146 147 147 147 148 147 147 147 149 152 156 156 156 154 153 153 152 150 146 142 140 137 134 130 128 127 126 125 123 121 119 117 115 114 112 112
Height
731 732 733 734 735 736 737 739 740 741 742 744 745 746 747 749 750 751 752 753 755 756 756 758 759 760 761 762 763 764 765 766 767 768 769 770 771 772 774 775 776 777 779 780 781 782 783 783 785 786 786 787 787 788 789 790 791 791 792 793 794 794 795 796 796 797 798 798 798
729 730 731 733 734 735 736 738 739 740 741 742 743 745 746 747 749 750 751 752 753 755 756 757 758 759 760 761 762 763 764 765 766 767 768 769 770 771 773 774 775 776 777 779 780 781 782 782 784 784 785 786 786 787 788 789 790 791 791 792 792 793 794 795 796 796 797 797 797
727 729 730 731 733 734 735 736 737 739 740 741 742 744 745 746 748 749 750 751 752 754 755 756 757 758 759 760 761 762 763 764 765 766 767 768 769 771 772 773 774 775 776 778 779 780 781 781 782 783 784 785 786 786 787 788 789 790 790 791 791 792 792 793 794 795 796 796 797
726 727 729 730 731 732 733 734 736 737 738 740 741 743 744 745 747 748 749 751 752 753 754 755 756 757 758 759 760 761 762 763 764 765 766 767 768 770 771 772 773 774 776 777 778 779 780 781 781 782 783 784 785 786 786 787 788 789 790 790 791 791 791 792 793 794 795 795 796
725 726 727 728 729 731 732 733 734 736 737 739 740 741 743 744 746 747 748 750 751 752 753 754 755 756 757 758 759 760 761 762 763 764 765 766 767 768 770 771 772 773 775 776 777 778 779 780 781 781 782 783 784 785 786 786 787 788 789 789 789 790 791 791 792 793 793 794 795
723 724 726 727 728 730 731 732 733 735 736 737 739 740 741 743 744 746 747 748 749 751 752 753 754 755 756 757 758 759 760 761 762 763 764 765 766 767 769 770 771 772 773 775 776 777 778 779 780 781 781 782 783 784 785 785 786 787 788 788 788 789 790 791 791 792 792 793 794
721 723 724 726 727 728 730 731 732 734 735 736 737 739 740 741 743 744 746 747 748 750 751 752 753 754 755 756 757 758 759 760 761 762 763 764 765 766 768 769 770 771 772 774 775 776 777 778 779 780 781 781 782 783 784 784 785 786 786 787 787 788 789 790 790 791 792 792 793
720 721 723 724 726 727 728 730 731 733 734 735 736 737 738 740 741 743 745 746 747 749 750 751 751 753 754 755 756 757 758 759 760 761 762 763 764 766 767 768 769 770 771 773 774 775 776 777 778 779 780 781 781 782 782 783 784 785 786 786 787 788 788 789 790 790 791 792 792
719 720 721 723 725 726 727 729 730 731 732 733 735 736 737 739 741 742 744 745 746 747 748 750 751 751 753 754 755 756 757 758 759 760 761 762 763 765 766 767 768 769 771 772 773 774 775 776 777 777 779 780 781 781 782 782 783 785 786 786 786 787 788 788 789 790 790 791 792
717 719 720 722 723 725 726 727 729 730 731 732 734 735 737 738 740 741 742 744 745 746 747 748 749 751 752 753 754 755 756 757 758 759 760 761 762 764 765 766 767 768 770 771 772 773 774 775 776 777 778 779 780 781 781 782 783 784 785 785 786 786 787 788 788 789 790 791 791
716 717 719 720 722 723 725 726 728 729 730 731 733 734 736 737 739 740 741 743 745 746 746 747 748 750 751 752 753 754 755 756 757 758 759 760 761 762 764 765 766 767 769 770 771 772 773 774 775 776 777 778 779 780 781 781 782 783 784 784 785 786 786 787 788 789 789 790 791
715 716 717 719 721 722 724 725 726 728 729 731 732 733 735 736 738 739 741 742 743 745 746 746 747 748 750 751 752 753 754 755 756 757 758 759 761 762 763 764 765 766 768 769 770 771 772 773 774 775 776 777 778 779 780 781 781 782 783 784 784 785 786 787 787 788 789 789 790
714 715 716 718 720 721 722 724 725 726 728 729 731 732 734 735 737 738 740 741 742 744 745 746 746 747 749 750 751 752 753 754 755 756 757 758 760 761 762 763 764 766 767 768 769 770 771 772 773 774 776 776 777 778 778 780 780 781 782 783 784 785 786 786 787 787 788 789 790
712 714 715 717 718 720 721 722 724 725 727 728 730 731 733 734 736 737 739 740 741 743 744 745 745 746 747 749 750 751 752 753 754 755 756 757 759 760 761 762 764 765 766 767 768 769 770 771 772 773 775 776 776 777 778 779 780 781 781 782 783 784 785 786 786 787 788 789 789
711 713 714 716 717 718 720 721 723 724 725 727 728 730 731 733 735 736 737 739 741 742 743 743 744 745 746 748 749 750 751 752 753 755 756 757 758 759 760 761 763 764 765 766 767 768 769 770 771 772 773 774 775 776 777 778 779 780 781 782 783 783 784 785 786 787 787 788 789
710 711 713 714 716 717 718 720 721 722 724 725 727 728 730 732 733 735 736 738 739 741 741 742 743 744 745 747 748 749 750 751 752 754 755 756 757 758 759 761 762 763 764 765 766 767 769 770 771 772 773 773 774 775 776 778 779 780 781 781 782 783 784 785 786 786 787 788 789
708 710 711 713 714 715 716 718 719 721 722 724 725 727 729 730 732 733 735 736 738 739 740 741 742 743 744 746 747 748 750 751 752 753 754 755 756 757 759 760 761 762 763 765 766 767 768 769 770 771 772 773 774 775 776 777 778 779 780 781 782 783 784 785 786 786 787 788 789
706 708 710 711 712 713 715 716 718 719 721 722 724 726 727 729 730 732 733 735 736 738 739 740 741 742 743 745 746 747 748 750 751 752 753 754 755 756 758 759 760 761 762 764 765 766 767 768 769 770 771 772 773 774 776 776 778 779 780 781 782 783 784 785 786 786 787 788 789
705 706 708 709 711 712 713 715 716 718 719 721 722 724 726 727 729 730 732 734 735 736 737 738 740 741 742 744 745 746 747 749 750 751 752 753 755 756 757 758 760 761 761 763 764 765 766 767 768 769 771 771 773 774 775 776 777 779 780 781 782 783 784 785 786 786 787 788 789
703 705 706 707 709 710 712 713 715 716 718 720 721 723 724 726 727 729 730 732 733 735 736 737 739 740 742 743 744 745 746 748 749 750 751 753 754 756 756 757 758 759 761 762 763 764 765 766 768 769 770 771 772 774 775 776 777 779 780 781 782 783 784 785 786 787 788 789 790
702 703 705 706 707 709 711 712 714 716 717 719 720 722 723 725 726 727 729 730 732 734 735 736 738 739 741 742 743 744 746 747 749 750 751 752 754 755 755 756 757 758 760 761 762 764 765 766 767 768 770 771 772 773 774 776 777 778 780 781 782 783 784 785 786 787 788 789 790
700 701 703 705 706 708 710 711 713 715 716 718 719 721 722 723 725 726 728 730 731 733 734 736 737 739 740 741 742 744 745 746 748 749 751 752 753 753 754 755 756 758 759 761 762 763 764 766 767 768 769 771 772 773 774 776 777 778 779 781 782 783 785 786 787 788 789 790 791
699 700 702 704 706 707 709 711 712 714 715 717 718 720 721 722 724 725 727 729 731 732 733 735 736 738 739 740 741 743 745 746 747 749 750 751 751 752 753 755 756 757 759 760 761 762 764 765 767 768 769 770 772 773 774 775 776 778 779 781 782 784 785 786 787 788 790 791 791
697 699 701 703 705 706 708 710 711 713 714 716 717 718 720 721 723 725 726 728 730 731 733 734 736 738 739 740 741 743 744 745 746 748 749 749 750 751 753 754 756 757 758 760 761 762 763 765 766 768 769 770 771 773 774 775 776 778 779 781 782 784 786 787 788 789 790 791 792
696 698 700 701 703 705 707 709 710 711 713 714 716 717 719 720 722 724 726 727 729 731 732 734 736 737 739 740 741 742 743 744 745 746 747 748 750 751 752 754 755 757 758 759 761 762 763 764 766 767 769 770 771 773 774 775 776 778 779 781 782 784 786 787 789 790 791 792 793
696 697 699 701 702 704 706 707 709 710 712 713 715 716 718 719 721 723 725 727 728 730 732 734 735 736 738 739 740 741 742 744 745 745 746 748 749 751 752 753 755 756 758 759 760 762 763 764 765 766 768 769 771 773 774 776 777 778 779 781 782 784 786 787 789 791 792 793 793
695 696 698 699 701 703 704 706 707 709 711 712 714 715 717 719 721 722 724 726 728 730 731 733 735 736 737 738 739 741 742 743 744 745 746 747 748 750 751 753 755 756 757 759 760 762 763 764 766 766 768 769 771 772 774 776 777 779 780 781 783 784 786 787 788 790 791 792 794
693 695 696 698 700 701 703 705 706 708 709 711 712 714 716 718 720 721 723 725 727 729 731 732 734 735 736 737 738 740 741 742 743 744 746 747 748 750 751 753 754 756 757 759 760 762 763 764 766 766 767 769 770 772 774 776 777 779 781 782 783 785 786 787 788 789 791 792 794
692 694 695 697 698 700 701 703 705 706 708 710 711 713 715 717 719 721 723 725 726 728 730 731 732 734 735 736 737 739 740 741 742 744 745 747 748 750 751 752 754 756 757 759 760 761 763 764 766 767 767 769 771 772 774 776 778 779 781 782 784 785 786 787 788 789 791 792 794
691 692 694 696 697 699 700 702 704 705 707 709 711 713 715 716 718 720 722 724 725 727 728 730 731 732 734 735 736 738 739 741 742 743 745 746 748 749 751 752 754 756 758 759 760 761 763 764 766 767 768 769 771 773 775 776 778 780 781 783 784 785 786 787 788 790 791 792 794
690 691 693 694 696 697 699 701 703 705 706 708 710 712 714 716 717 719 721 722 724 726 727 729 730 731 733 734 736 737 738 740 741 743 744 746 747 749 751 752 754 756 758 759 760 761 763 764 766 767 768 770 771 773 775 777 778 780 781 783 785 786 787 788 789 790 791 793 794
689 690 692 693 695 697 698 700 702 704 705 707 709 711 713 715 716 718 720 722 723 725 726 728 729 731 732 734 735 736 738 740 741 743 744 745 747 749 751 752 754 756 758 759 760 761 763 765 766 767 769 770 772 774 776 777 779 781 782 784 785 786 787 789 790 791 792 793 794
688 689 691 692 694 696 698 700 701 703 705 706 708 710 712 714 716 718 720 721 723 724 725 726 728 730 731 733 734 736 738 739 741 742 744 745 746 748 750 752 754 756 758 759 761 762 763 765 766 767 769 771 772 774 776 778 780 781 783 784 786 787 788 789 791 792 793 794 795
687 688 690 692 694 696 697 699 700 702 704 706 707 709 711 713 715 717 719 720 722 723 724 726 727 729 730 731 733 735 737 739 741 742 743 745 746 748 750 752 755 756 758 760 761 762 763 765 766 768 769 771 773 775 777 778 780 782 783 785 786 788 789 790 791 792 793 794 795
686 687 689 691 693 695 696 698 699 701 703 705 707 709 711 712 714 716 717 719 721 723 724 726 727 729 730 732 733 735 736 738 740 742 743 745 746 748 750 752 755 757 758 760 761 762 763 765 766 768 769 771 773 776 777 779 781 782 784 785 787 789 790 791 792 793 794 795 796
684 686 688 690 692 694 695 697 699 700 702 704 706 708 710 712 714 715 717 718 720 722 724 726 727 729 730 732 733 735 736 737 740 741 743 745 746 748 750 753 755 757 759 760 761 762 764 765 766 768 769 771 774 776 778 779 781 783 785 786 788 790 791 792 793 794 795 796 797
683 685 687 689 691 693 694 696 698 700 701 703 706 707 709 711 713 715 716 718 719 721 723 725 727 728 730 731 733 735 736 737 739 741 743 745 746 747 750 753 756 758 759 760 761 762 764 765 766 768 769 771 774 776 778 780 782 784 786 787 789 791 792 793 794 795 796 797 797
681 683 685 687 690 692 694 696 697 699 701 703 705 707 709 711 712 714 715 717 718 720 722 724 726 728 729 731 733 735 736 737 739 740 742 744 746 747 750 753 756 758 760 761 762 763 764 765 766 768 769 771 773 776 778 780 782 784 786 788 790 792 793 794 795 796 797 798 798
678 680 683 686 688 691 693 695 697 698 700 702 704 706 708 710 711 713 715 716 717 719 721 723 726 727 729 731 733 735 737 738 739 740 742 744 746 747 749 752 755 758 760 761 762 763 764 766 767 768 770 771 773 776 778 780 782 785 787 789 791 792 794 795 796 797 798 798 799
676 678 681 684 687 690 692 694 696 698 700 702 704 706 707 709 711 712 714 716 718 719 721 723 725 727 729 731 733 735 737 739 741 741 742 744 746 747 749 751 755 758 761 762 763 764 765 766 767 769 771 772 774 776 777 780 782 785 787 789 791 793 794 796 796 797 798 799 800
675 676 678 681 685 688 691 694 696 697 699 701 703 705 706 708 710 712 714 716 718 720 721 723 725 727 729 731 733 735 737 740 741 743 743 745 746 748 750 752 755 758 761 763 764 764 765 766 768 769 771 772 774 776 778 780 782 785 787 789 791 793 794 796 797 798 799 800 801